Back to catalog

STARLINK-35004

AliveCommunicationsVLEO
NORAD 65428·PAYLOAD·🇺🇸 United States

Launched Aug 31, 2025 from Cape Canaveral Space Force Station

Loading…

Next Passes (next 24 hours)

TLE

FreshSource: CelesTrak SupGP

Epoch: Sep 14, 2026, 14:57 UTC

1 65428C 25192AA  26257.62340278 -.00049501  00000+0 -14620-2 0  2570
2 65428  53.1595  73.0608 0001162  92.1169 312.5099 15.34427140    18

Track STARLINK-35004 in real time with AllMySat

Download on the App Store